sat.trackr.live / text

‹ back to catalog

RASSVET-3 14

NORAD 68373 · 2026-061P

PAYLOAD ACTIVE UNKNOWN

§ Identity

Operator
Country
CIS
Launch date
2026-03-23
Launch site
PLMSC
Launch vehicle
Mass (kg)
RCS (m²)

External: N2YO · Heavens-Above · Gunter

§ Orbital elements

Epoch: 2026-09-20T02:54:29.585664Z

Period
91.62 min
Inclination
82.2883°
Eccentricity
0.0011979
Mean motion
15.71647556 rev/d
Perigee alt
346.1 km
Apogee alt
362.3 km
Semi-major
6,732.3 km
B*
1.9877e-4
RAAN
267.3128°
Arg perigee
123.1221°
Mean anomaly
237.1193°
Rev number
2,847

§ Raw data

RASSVET-3 141 68373U 26061P   26263.12117576  .00025727  00000+0  19877-3 0  99982 68373  82.2883 267.3128 0011979 123.1221 237.1193 15.71647556 28472

JSON: /api/v1/satellites/68373 · /tle

For live sub-satellite position, see the globe view (requires WebGL).

§ Visibility from observer

Set your observer location to see the next 7 days of passes ≥ 10°. The values pass through the URL so the page stays shareable.

No JS? Fill the form by hand. The geolocation button needs JavaScript.